Regional Weather Roundup
Issued by NWS

Home | Current Version | Previous Version | Text Only | Print | Product List | Glossary On
Versions: 1 2 3 4 5 6 7 8 9 10 11 12 13 14 15 16 17 18 19 20 21 22 23 24 25 26 27 28 29 30 31 32 33 34 35 36 37 38 39 40 41 42 43 44 45 46 47 48 49 50
000
ASUS44 KOUN 010710
RWROK

WEATHER ROUNDUP FOR OKLAHOMA
NATIONAL WEATHER SERVICE NORMAN OK
200 AM CDT FRI AUG 01 2014

NOTE: "FAIR" INDICATES FEW OR NO CLOUDS BELOW 12,000 FEET WITH NO
      SIGNIFICANT WEATHER AND/OR OBSTRUCTIONS TO VISIBILITY.

OKZ001>007-009>012-014-015-017-010800-
NORTHWEST OKLAHOMA AND THE PANHANDLE

CITY           SKY/WX    TMP DP  RH WIND       PRES   REMARKS
GAGE           MOCLDY    62  59  90 CALM      30.13F
ENID/WOODRING  PTCLDY    63  63 100 CALM      30.08F FOG
$$

OKZ016-021>023-033>039-044-045-010800-
SOUTHWEST OKLAHOMA

CITY           SKY/WX    TMP DP  RH WIND       PRES   REMARKS
LAWTON/REGL    CLOUDY    70  66  87 CALM      30.09F
LAWTON/FT SILL MOCLDY    68  66  94 N3        30.08F
FREDERICK      PTCLDY    67  66  97 CALM      30.07F
CLINTON        PTCLDY    67  63  87 SE3       30.14S
HOBART         CLEAR     65  63  93 CALM      30.12S
ALTUS AFB      CLEAR     65  65  98 CALM      30.11S
$$

OKZ018>020-024>031-010800-
CENTRAL OKLAHOMA

CITY           SKY/WX    TMP DP  RH WIND       PRES   REMARKS
OKLAHOMA CITY  PTCLDY    66  63  90 CALM      30.10R FOG
OKC/WILEY POST FOG       65  63  93 CALM      30.10R VSB 1
OKC/TINKER AFB CLEAR     66  65  96 E5        30.10S
STILLWATER     PTCLDY    63  63 100 CALM      30.09R FOG
GUTHRIE        FOG       64  63  96 CALM      30.09S VSB 1/4
$$

OKZ008-013-054>072-010800-
NORTHEAST OKLAHOMA

CITY           SKY/WX    TMP DP  RH WIND       PRES   REMARKS
TULSA          PTCLDY    68  66  93 S6        30.06S
TULSA/JONES    CLOUDY    67  66  97 CALM      30.08R
PONCA CITY     CLEAR     66  64  93 CALM      30.08S FOG
BARTLESVILLE   FOG       63  62  97 CALM      30.08S VSB 1/2
MUSKOGEE       MOCLDY    67  65  93 S5        30.08S
$$

OKZ032-040>043-046>053-073>077-010800-
SOUTH CENTRAL/SOUTHEAST OKLAHOMA

CITY           SKY/WX    TMP DP  RH WIND       PRES   REMARKS
ARDMORE/DWNTWN CLOUDY    68  64  88 NE5       30.07S
MCALESTER      MOCLDY    67  64  90 NE3       30.07S
$$



USA.gov is the U.S. government's official web portal to all federal, state and local government web resources and services.